User: anonymous   Login
Location: Unspecified
(0.0000°N, 0.0000°E)
Time: 08:18:19
(UTC+00:00)
Language:

MAST - Orbit

View from above orbital plane
View from above orbital plane
View from above satellite
View from above satellite

Ground track
Ground track

The orbit data is extracted from the following two-line orbital elements,

1 31126U 07012K   19345.83477738 +.00000020 +00000-0 +14948-4 0  9994
2 31126 098.1656 282.5870 0088922 235.3461 123.9332 14.56771303671964
Epoch (UTC): 11 December 2019 20:02:04
Eccentricity: 0.0088922
inclination: 98.1656°
perigee height: 640 km
apogee height: 766 km
right ascension of ascending node: 282.5870°
argument of perigee: 235.3461°
revolutions per day: 14.56771303
mean anomaly at epoch: 123.9332°
orbit number at epoch: 67196

The dashed part of the orbit path shows where the satellite is in the earth's shadow,  

DLR